Location: Branche des Alpilles
(43.6087°N, 4.6976°E)
Time: 10:48:24
(UTC+00:00)

Envisat - Pass Details

Date: 28 September 2021
Orbit: 764 x 766 km, 98.2° (Epoch: 20 October)

Event Time Altitude Azimuth Distance (km) Brightness Sun altitude
Rises 03:46:21 0° 27° (NNE) 3,240 6.9 -20.3°
Reaches altitude 10° 03:49:15 10° 44° (NE) 2,308 6.4 -19.8°
Maximum altitude 03:53:01 21° 92° (E) 1,690 5.6 -19.1°
Drops below altitude 10° 03:56:44 10° 140° (SE) 2,295 5.8 -18.5°
Sets 03:59:36 0° 156° (SSE) 3,215 6.3 -18.0°
